Wind_Speed
14 15 18 20 21 23 25 28 29 30 32 33 35 37 33 27 25 25 25 26 28 29 30 30 31 32 31 30 30 29 28 26 24 21 20 20 19 19 18 18 17 15 14 13 12 11 10 9 8 8 9 10 10 10 11 12 14 15 16 18 21 24 27 29 32 33 33 34 35 37 39 41 43 45
14 16 18 20 22 24 26 28 29 29 31 33 35 36 31 25 24 24 25 26 27 28 29 29 31 31 30 29 30 30 28 27 24 21 19 18 16 16 15 15 14 13 12 10 9 9 8 8 8 8 9 8 8 8 9 11 12 13 15 17 20 25 29 31 33 35 35 36 36 37 39 42 44 46
15 17 19 21 22 24 26 27 28 29 31 32 34 35 29 24 23 23 24 25 26 26 27 29 30 30 29 29 30 29 27 26 23 20 18 17 15 13 13 12 12 11 9 8 7 6 6 6 6 7 6 5 6 6 7 8 9 12 15 16 21 27 32 34 35 37 38 38 39 39 41 43 45 47
16 18 20 22 23 24 25 26 27 28 30 32 34 33 27 23 22 22 23 24 24 24 24 27 28 28 28 30 31 30 27 25 23 21 19 16 15 13 12 12 11 10 8 6 5 4 4 4 5 5 4 5 7 6 6 8 10 14 16 17 22 29 33 36 37 39 40 41 41 42 42 44 46 48
17 19 20 22 23 24 24 25 26 27 29 31 33 32 26 22 22 21 22 22 21 21 21 23 26 28 29 30 31 30 28 26 24 22 20 18 16 15 15 14 13 12 9 6 4 3 1 2 3 2 3 5 7 8 8 10 12 15 17 19 22 27 30 34 37 40 42 42 43 43 43 44 46 48
18 19 20 21 21 23 23 24 25 27 28 30 32 31 25 21 21 20 20 20 19 19 18 20 24 27 28 29 30 30 29 28 26 24 22 20 18 17 17 17 16 14 11 8 7 5 4 3 3 4 5 5 7 9 10 12 13 15 17 19 21 25 28 31 35 40 42 43 43 43 44 44 46 48
18 18 19 19 21 22 22 23 25 26 27 29 31 30 24 21 20 20 19 18 17 17 17 17 20 23 27 28 29 31 31 31 29 28 27 25 23 21 21 20 19 17 15 12 11 11 9 8 7 7 8 9 10 10 11 13 15 17 19 21 23 27 29 31 34 40 44 43 42 42 43 44 45 47
18 18 18 19 20 21 22 23 24 26 27 28 30 29 24 21 20 19 18 17 16 16 16 16 18 22 25 28 29 31 32 32 31 29 28 28 27 26 26 25 25 23 19 16 15 16 15 14 13 11 11 12 13 14 15 17 18 19 21 23 25 28 30 32 34 40 45 44 42 41 42 43 44 46
18 18 19 19 20 21 22 23 24 25 26 27 29 27 23 20 20 19 17 15 14 14 14 15 18 22 26 28 30 31 31 31 30 28 28 28 28 27 26 26 27 27 25 22 19 19 19 19 19 18 16 16 16 16 18 20 21 23 24 26 28 30 33 35 37 41 45 44 42 42 42 42 43 46
19 19 19 20 20 21 22 23 23 24 25 26 28 26 23 20 20 19 17 14 13 13 12 13 17 23 26 27 28 28 28 29 30 30 29 29 29 29 28 26 26 26 27 26 24 22 21 21 22 22 20 20 20 21 23 25 26 28 29 30 32 35 36 37 38 43 46 43 41 43 44 43 43 45
19 20 20 20 21 21 22 23 23 24 24 25 26 26 23 20 21 20 18 16 15 13 12 13 17 22 24 24 24 25 27 29 30 31 31 30 30 29 29 29 28 27 28 28 27 25 24 24 24 24 23 24 25 27 28 30 31 32 34 34 35 36 36 37 39 44 47 43 41 43 46 44 42 44
20 20 21 21 21 22 23 23 24 24 24 25 25 25 23 21 21 22 20 18 16 14 13 15 19 22 23 23 23 25 27 28 29 31 32 31 31 29 29 30 30 30 30 30 30 28 26 26 27 26 24 25 26 28 29 30 31 32 33 34 35 35 36 38 41 45 46 44 42 43 46 45 42 43
21 21 22 22 22 23 23 24 24 24 25 25 25 26 24 22 22 23 22 19 17 14 14 17 20 21 21 22 24 25 26 28 29 30 32 33 33 32 31 30 31 32 33 33 32 30 27 26 28 27 23 22 24 26 28 29 30 31 34 36 37 38 39 40 41 43 44 43 43 43 45 44 41 41
22 22 23 23 23 24 24 24 24 24 24 25 25 25 24 22 22 23 22 21 19 16 15 19 21 22 22 22 24 25 27 28 29 30 32 34 35 36 35 34 34 34 37 38 37 34 30 26 27 27 22 21 24 25 26 28 31 33 35 36 37 39 39 37 37 39 40 42 44 44 44 43 41 40
25 24 24 24 24 25 25 25 25 25 24 24 24 24 24 22 22 23 23 23 22 19 16 19 22 23 23 22 23 24 26 27 28 29 30 31 33 35 36 37 37 36 37 38 38 37 33 29 28 27 23 21 24 25 26 30 33 35 35 36 39 40 36 32 33 36 39 43 44 44 43 42 40 40
27 27 26 26 26 26 26 26 26 25 25 25 24 24 24 23 23 24 25 24 23 21 19 19 22 23 23 21 21 23 24 26 28 29 29 29 31 32 33 34 36 36 36 37 38 37 35 33 31 29 26 24 26 28 30 33 35 37 38 41 42 37 31 31 35 39 42 43 41 39 40 41 41 41
30 29 28 27 27 28 28 28 27 27 26 25 25 24 24 24 24 24 26 26 25 23 22 22 23 23 23 21 21 22 24 27 29 30 29 29 30 32 32 33 34 35 35 36 37 37 35 35 36 34 31 30 33 36 39 41 40 38 38 41 41 36 33 34 37 39 39 37 35 34 36 39 41 42
32 31 30 29 29 29 29 29 29 28 28 26 25 25 25 24 24 25 26 27 27 25 25 25 25 25 24 23 23 24 25 26 28 29 30 30 31 33 35 35 35 37 36 35 34 35 36 37 38 39 37 36 37 41 43 45 44 39 34 36 41 42 39 35 34 36 34 32 33 34 35 37 39 40
34 33 32 31 31 31 30 30 30 30 29 28 26 26 25 25 25 25 27 29 29 28 27 26 26 27 26 25 25 25 25 26 27 29 30 30 32 35 37 38 38 39 40 38 36 36 38 39 39 40 39 39 40 42 43 44 44 41 37 36 40 44 45 41 38 38 34 32 35 36 37 38 37 36
35 34 33 32 32 32 31 31 32 32 31 29 28 27 27 26 26 26 28 29 30 30 29 27 27 29 28 27 26 26 25 26 27 29 31 31 32 34 37 38 40 41 42 41 40 40 41 42 41 40 40 41 41 42 43 43 43 42 40 40 42 44 46 46 45 43 40 38 39 39 40 41 39 37
36 35 35 34 33 33 32 32 33 33 33 32 30 29 28 28 28 28 29 30 32 33 34 33 32 32 31 29 28 28 28 28 28 30 33 33 33 34 36 37 40 43 43 43 43 43 43 44 44 43 43 43 43 42 43 44 44 43 41 41 42 44 47 48 48 48 48 46 43 40 41 43 41 38
38 37 36 36 35 34 33 34 34 34 35 34 32 31 30 30 30 29 30 32 33 35 37 37 37 36 35 33 32 32 32 32 31 32 34 35 35 36 38 38 41 45 47 47 47 46 45 46 46 46 45 45 46 46 46 46 46 45 43 41 41 42 47 50 50 51 53 52 48 41 38 39 39 38
40 39 38 38 37 36 35 35 35 35 36 36 34 32 32 32 32 32 32 33 35 37 38 39 39 38 37 36 36 36 36 36 36 36 36 37 38 39 41 41 41 44 47 48 48 48 48 48 48 48 48 48 48 49 50 50 50 50 48 45 43 43 44 46 49 52 53 55 54 47 40 36 37 37
42 41 41 40 40 39 38 37 37 36 37 37 36 34 34 34 34 34 35 36 37 38 40 40 40 39 39 39 39 39 39 38 38 39 39 39 39 40 41 43 43 44 47 48 48 48 50 50 49 49 50 50 50 52 53 53 53 53 52 51 49 46 43 43 45 48 50 53 55 53 48 42 38 37
43 43 43 42 42 42 41 40 39 39 39 38 37 36 35 35 35 36 37 38 38 40 41 41 42 41 41 42 42 41 39 38 38 40 40 41 41 42 43 44 45 46 48 50 50 50 51 53 52 50 50 51 52 53 55 56 58 58 57 56 55 52 48 45 42 43 47 50 52 53 53 50 45 41
44 44 45 45 45 44 44 42 41 41 40 39 38 38 37 36 36 37 39 39 40 41 42 42 43 43 43 43 43 42 40 40 40 40 41 42 42 44 46 47 48 48 50 52 53 53 53 55 56 55 53 52 52 53 55 58 60 61 61 61 61 59 56 52 46 42 41 43 47 51 53 55 54 49
46 46 47 47 47 46 45 45 44 43 41 40 39 39 39 38 37 38 40 41 41 42 43 44 44 43 43 43 44 43 43 43 42 43 44 44 45 45 48 50 51 52 52 54 55 56 56 57 58 59 57 55 54 53 55 58 60 61 61 62 64 63 62 59 54 47 41 38 41 45 48 51 54 54
48 48 48 49 49 48 47 46 45 44 42 41 41 41 41 41 40 40 41 42 42 43 44 44 44 44 44 44 45 45 46 46 45 45 46 47 47 48 49 52 54 55 55 56 57 59 59 60 61 61 61 58 56 54 55 58 60 61 60 61 63 64 65 63 59 52 46 41 39 40 41 43 46 48
50 50 50 50 50 49 47 46 46 45 44 43 42 42 42 42 42 42 42 42 43 45 46 46 46 46 46 46 47 47 48 48 47 47 48 49 49 49 50 53 55 56 57 58 59 60 62 63 64 64 62 61 58 56 56 58 61 62 61 60 61 62 63 64 61 56 50 44 40 38 37 38 41 41
50 50 50 50 50 49 48 47 47 46 45 44 44 43 43 43 44 44 44 44 45 47 48 48 48 48 47 47 48 49 49 50 49 48 49 50 51 52 52 54 56 58 59 60 61 62 63 64 66 66 64 62 61 60 60 61 63 64 63 61 61 60 61 62 62 57 51 44 41 39 34 34 37 34
50 51 50 50 49 48 48 48 48 47 46 45 45 44 44 45 46 46 46 46 47 48 49 50 49 49 48 48 49 50 51 51 51 50 50 51 53 54 54 55 56 58 60 63 64 65 65 66 67 68 67 66 65 65 65 65 66 67 66 64 62 60 60 61 59 56 50 44 42 39 33 31 31 28
49 50 50 49 49 48 48 48 47 47 47 46 46 46 46 47 48 48 48 48 49 50 51 51 50 49 49 50 51 51 52 52 52 52 53 54 55 56 57 57 57 58 60 63 65 67 67 68 69 70 71 70 69 69 70 70 70 70 69 67 64 61 60 60 58 54 49 44 41 38 33 30 27 23
48 49 49 49 48 47 47 47 47 47 47 48 48 48 49 49 50 50 50 50 51 51 52 52 51 51 51 51 52 53 53 53 54 55 56 57 58 59 60 60 60 60 61 63 65 67 68 69 70 71 72 72 71 71 71 72 73 73 72 70 67 63 60 58 57 52 46 43 41 38 35 32 28 25
46 47 47 47 47 47 47 47 47 48 49 50 50 51 51 52 52 52 52 52 52 53 53 53 52 52 52 53 53 54 54 55 56 57 59 59 61 62 62 62 63 63 64 65 66 67 69 70 71 72 73 73 72 71 72 73 72 73 72 71 68 65 60 57 57 52 46 44 44 41 36 32 30 30
48 50 50 49 49 49 49 49 49 50 51 52 53 53 53 54 53 53 53 54 54 54 54 54 54 54 54 54 55 55 56 57 58 59 61 62 63 64 65 65 65 66 67 68 68 69 70 71 72 73 74 74 73 73 74 74 73 71 71 70 68 65 60 56 55 52 46 44 44 40 34 31 31 34
52 52 51 50 50 51 51 51 52 53 53 54 54 54 54 54 54 54 55 55 55 55 56 55 55 55 55 56 56 57 58 59 60 61 63 64 65 66 67 67 68 68 69 70 70 71 72 73 74 75 75 75 74 74 75 76 74 72 70 68 66 65 60 55 53 51 47 44 42 37 31 30 32 35
50 50 50 51 52 53 53 54 54 55 55 55 55 55 55 55 55 56 56 57 57 57 57 57 56 57 57 57 58 59 60 61 62 63 65 66 67 68 69 69 70 71 72 73 73 73 74 75 76 76 76 76 76 76 76 76 75 73 70 67 65 63 60 54 51 49 46 43 40 35 30 30 34 36
55 56 56 56 55 55 55 56 56 56 56 56 56 56 56 56 57 57 57 57 58 57 57 57 58 58 59 59 60 61 62 64 65 66 67 68 69 69 70 71 72 74 75 76 76 76 76 77 77 77 77 77 77 77 76 75 74 73 70 67 64 61 59 54 49 46 43 41 38 35 32 32 34 35
53 55 56 57 57 57 57 57 57 56 56 56 56 56 56 56 56 56 57 57 57 58 58 58 59 60 61 61 62 63 65 66 67 68 69 70 71 71 72 73 74 76 77 78 79 80 80 80 80 80 80 79 78 78 76 75 73 71 69 67 63 60 57 54 48 44 41 38 37 36 35 35 36 37
55 57 58 58 58 57 56 55 55 55 54 54 54 55 55 55 55 55 55 56 57 58 59 60 61 62 62 64 65 66 67 68 69 70 71 72 72 73 74 75 76 78 79 81 82 82 83 83 84 84 83 81 80 79 77 74 72 69 67 65 62 59 57 52 47 44 41 38 36 37 37 36 37 39
60 59 57 55 55 54 53 53 53 53 53 53 53 53 54 54 54 55 55 56 57 58 59 61 62 63 64 65 66 68 69 70 71 72 73 74 75 76 77 77 79 80 82 83 84 84 85 86 86 86 85 84 82 80 77 74 71 68 65 63 60 58 56 52 46 43 41 38 36 37 39 38 37 39
56 54 52 51 50 50 51 52 52 52 53 53 54 54 54 55 56 56 57 58 59 60 61 62 63 64 66 67 68 70 71 72 73 74 75 76 77 78 79 80 81 83 84 85 85 86 86 87 87 87 87 85 83 80 77 74 70 67 64 61 58 56 55 51 46 43 41 39 37 37 40 42 41 40
50 50 50 50 50 51 52 53 53 54 54 55 56 56 57 58 58 59 60 61 62 63 64 65 66 67 68 69 71 72 73 74 75 76 77 78 79 80 81 82 84 85 86 87 87 87 87 88 88 88 86 84 82 80 77 74 71 67 64 60 57 55 53 50 46 42 41 40 39 37 38 43 45 44
50 51 53 54 55 54 54 54 55 56 57 57 58 59 59 60 61 62 63 63 64 65 67 68 69 70 71 72 73 75 76 77 78 79 80 81 82 83 84 84 85 87 88 88 89 89 89 88 88 86 84 82 81 79 77 74 71 68 65 61 58 55 52 49 46 42 40 40 41 39 38 41 47 50
54 55 55 55 54 54 55 56 57 58 58 59 60 61 62 63 64 65 66 66 67 68 70 71 72 73 74 75 76 77 78 79 80 81 82 83 84 85 86 86 87 88 89 89 90 89 89 87 86 84 82 81 79 78 76 73 70 68 64 61 58 55 52 49 47 44 42 41 42 43 41 41 45 50
Wind_Direction
328 332 337 340 344 348 349 350 351 352 353 353 353 353 355 360 5 6 6 6 8 9 8 8 7 8 12 19 26 30 29 28 32 38 42 46 51 56 59 62 63 65 69 73 75 76 76 75 77 75 68 63 57 45 34 26 22 19 15 13 12 11 10 8 7 5 3 1 359 360 0 1 1 1
327 330 334 338 341 345 346 347 348 350 351 351 351 352 354 360 4 5 5 7 9 9 7 6 7 10 17 25 31 35 35 32 31 32 35 39 44 48 52 53 53 52 53 57 62 67 71 74 75 70 64 59 45 33 27 23 17 12 10 11 12 9 6 4 5 4 1 357 355 356 358 360 1 1
329 330 332 334 338 341 343 345 346 347 350 350 350 351 354 359 2 4 5 6 9 9 7 6 9 15 23 27 30 33 36 35 33 30 28 29 33 36 38 40 40 38 35 36 43 57 68 75 73 62 53 40 21 14 10 2 357 359 1 5 7 5 2 1 1 0 358 355 353 352 354 357 359 0
328 328 329 331 335 338 340 342 344 346 348 349 349 350 353 357 0 3 5 6 10 12 9 7 13 21 25 23 22 24 26 27 27 26 24 20 20 19 19 20 18 12 8 11 22 43 70 78 69 52 31 6 353 346 338 332 333 340 344 350 357 358 357 357 356 355 353 352 351 350 351 353 356 358
325 324 326 328 332 336 338 340 342 345 347 348 348 349 351 354 357 1 4 5 12 15 11 9 14 21 21 16 14 14 15 15 15 14 13 10 8 6 0 355 352 349 345 338 343 354 18 55 46 19 347 343 335 324 319 316 318 324 331 338 345 348 348 349 351 350 349 349 349 349 349 350 353 355
321 321 323 327 330 334 337 338 340 344 346 347 347 347 348 350 353 358 1 4 11 14 11 12 16 17 12 8 6 5 5 5 4 0 357 355 356 355 349 341 336 335 330 315 304 303 295 317 332 304 296 300 304 310 310 306 308 313 319 324 330 334 335 337 342 345 346 346 347 348 349 350 351 353
318 318 321 324 328 332 334 335 338 342 344 345 346 345 344 345 348 354 358 1 8 10 7 10 16 12 4 360 359 358 357 355 353 349 345 341 339 338 333 328 325 325 324 313 297 290 288 295 300 293 291 289 286 294 297 296 303 309 310 313 319 324 325 326 332 338 341 343 345 347 349 351 351 352
316 317 319 321 325 329 331 333 336 340 342 343 345 344 342 341 343 349 355 359 4 5 2 4 7 4 358 355 353 353 353 350 348 348 346 342 338 335 330 324 319 316 316 313 303 294 290 289 291 291 289 289 289 291 292 293 300 304 304 306 311 317 319 320 323 330 335 338 342 346 349 351 353 353
316 317 318 320 323 326 328 330 334 338 339 341 344 343 339 336 337 342 348 353 356 358 359 359 359 356 353 352 351 352 353 351 350 351 351 346 342 340 338 332 325 319 315 311 306 298 292 288 289 289 290 293 295 296 298 300 301 304 305 305 306 310 314 315 317 324 330 333 338 343 346 349 352 353
316 318 318 319 321 323 324 327 331 334 336 339 342 343 337 332 331 333 339 343 345 350 353 351 352 352 352 353 354 355 355 353 351 350 350 348 344 343 344 342 337 331 324 318 312 305 296 289 285 285 287 292 296 298 304 307 306 307 307 305 305 308 310 312 315 321 326 329 334 339 341 343 348 351
314 318 319 319 319 320 321 324 328 331 333 336 341 342 336 329 325 327 331 336 340 346 349 344 347 350 352 354 356 356 357 355 352 351 350 349 347 345 347 347 344 339 333 327 325 319 308 296 287 283 285 290 297 302 307 311 311 310 308 305 305 307 308 309 314 319 323 326 330 334 337 338 342 347
310 314 317 318 318 317 318 320 324 327 329 333 339 342 337 328 323 322 326 333 339 344 347 345 346 349 350 353 356 359 359 357 355 353 350 349 348 347 346 346 345 343 338 333 332 329 320 307 294 289 292 297 301 306 311 315 317 316 315 312 311 310 309 311 315 319 321 323 325 330 333 333 336 343
304 309 313 316 316 315 315 317 320 323 326 330 336 341 338 327 320 319 322 328 333 336 341 342 342 344 346 352 357 359 359 357 356 355 352 350 349 349 347 345 344 343 341 339 337 336 332 319 300 292 297 301 301 307 313 316 319 321 323 322 319 317 314 314 317 319 319 319 322 326 330 331 332 339
298 303 308 311 313 312 312 313 315 318 322 327 333 338 336 326 316 314 316 319 322 325 332 336 337 336 341 350 356 357 356 356 356 357 355 352 350 349 348 347 346 344 342 341 339 338 338 329 308 296 295 297 296 301 309 313 315 318 319 320 321 322 318 315 317 320 320 318 320 324 327 328 329 334
293 298 302 306 308 309 309 310 310 313 317 322 328 334 334 326 314 308 309 311 314 318 323 330 334 335 340 348 354 354 354 354 355 359 359 354 350 349 348 346 346 345 343 340 338 337 337 332 318 303 293 291 293 296 304 309 312 315 317 318 321 323 322 318 316 317 319 317 318 320 322 323 325 330
288 292 297 301 304 306 306 307 307 309 312 317 324 329 330 326 314 306 305 306 309 312 315 320 330 335 338 343 348 349 349 350 353 357 359 356 350 348 348 347 346 346 346 343 339 336 335 332 325 313 298 291 290 293 301 306 310 315 318 316 316 318 318 316 312 312 314 315 314 316 318 320 323 325
284 288 291 296 301 302 303 304 304 304 307 312 319 324 326 324 315 305 301 302 305 308 309 313 324 331 331 334 340 342 345 348 350 351 354 353 348 346 347 348 348 349 351 348 343 337 334 333 330 322 311 302 293 291 296 302 306 312 315 314 314 313 309 307 309 313 314 312 310 311 314 318 321 321
282 284 287 291 296 299 301 301 301 301 304 308 314 318 320 319 314 304 298 298 300 303 305 310 319 325 325 327 332 336 341 344 344 343 345 347 346 345 346 348 348 350 352 352 347 341 337 336 332 326 321 316 304 295 296 299 301 303 304 305 307 308 306 305 309 314 313 309 308 309 310 313 316 318
281 282 284 286 291 295 298 299 298 298 300 303 308 312 313 314 312 304 296 294 295 298 302 307 313 317 318 320 325 331 335 336 335 336 338 341 343 344 345 346 346 347 350 351 349 345 342 339 335 329 325 323 316 308 304 303 300 297 294 291 294 300 305 304 304 305 303 301 303 304 305 307 308 310
281 281 281 283 286 291 295 297 296 296 296 299 303 306 307 308 308 302 295 292 291 292 294 298 303 308 311 314 319 322 323 325 327 328 330 334 338 342 344 344 342 343 346 348 347 344 342 340 338 335 331 327 322 316 313 309 304 299 295 289 285 289 294 294 293 293 294 298 299 297 299 301 300 299
280 281 281 281 283 287 292 295 295 294 294 295 298 301 303 303 302 299 295 291 289 288 289 291 293 298 304 308 311 312 313 316 320 323 325 328 333 337 340 341 340 339 341 346 347 343 339 338 337 338 338 334 328 324 320 316 309 304 301 295 288 283 282 284 287 289 290 294 297 295 295 297 296 293
278 280 280 281 281 284 288 292 293 293 291 292 295 297 299 298 297 296 294 291 288 287 287 288 288 292 298 304 307 308 310 313 316 318 322 326 330 334 335 337 340 338 337 343 348 343 337 335 333 335 339 339 335 330 326 322 317 312 307 303 297 289 283 282 283 284 286 287 290 293 297 298 295 290
275 278 279 280 281 282 285 289 291 291 289 289 292 294 296 296 294 292 291 290 288 288 287 288 289 292 298 302 304 306 307 311 315 319 322 326 330 332 332 333 336 336 335 340 345 342 337 334 331 331 335 339 338 334 329 326 322 318 315 311 305 298 292 287 283 281 280 281 282 287 292 297 296 288
273 276 278 280 280 281 282 286 288 289 287 287 289 291 293 293 292 290 289 288 287 288 288 289 291 293 297 300 302 305 309 313 318 321 323 326 328 328 329 330 332 333 333 336 340 340 338 334 330 328 330 334 337 335 332 329 324 321 320 318 313 307 301 295 289 284 281 279 279 281 285 289 293 289
271 275 278 280 281 280 281 283 286 287 286 286 286 288 290 291 289 287 286 287 287 287 287 289 291 293 295 298 301 306 310 313 316 318 321 323 325 326 327 328 330 331 331 333 335 338 337 335 332 328 326 329 334 335 334 332 328 325 324 320 317 314 309 304 299 291 284 280 279 279 280 283 287 287
272 274 277 280 280 280 280 282 284 286 286 285 285 286 288 289 288 286 284 285 285 285 286 287 289 291 294 298 302 305 307 309 310 313 315 317 320 323 325 326 327 328 329 330 332 334 335 334 332 329 325 324 327 332 334 334 331 328 325 321 318 316 314 311 309 302 292 285 282 279 278 279 281 283
272 274 276 278 279 279 279 280 283 285 286 284 284 285 286 287 288 286 283 283 283 283 285 286 288 291 294 297 299 301 303 304 306 308 311 313 316 319 321 323 324 325 327 328 328 329 332 332 331 330 327 322 321 324 329 332 331 328 325 321 318 316 315 314 313 311 304 294 288 284 282 279 278 279
272 273 275 277 278 278 278 280 282 284 284 282 282 283 285 286 287 286 283 282 281 281 283 285 286 289 292 294 296 297 298 300 303 305 308 310 313 317 319 321 322 323 324 326 326 326 328 330 330 330 329 325 320 318 321 326 328 327 324 320 317 315 314 313 313 314 311 303 295 292 289 284 281 281
271 273 274 275 276 277 278 280 282 283 282 281 280 282 284 286 286 285 283 281 280 280 281 282 284 286 288 290 292 294 296 298 301 303 306 309 312 315 317 319 320 321 323 323 324 325 327 328 329 330 329 327 323 319 318 321 324 324 323 320 317 313 312 312 312 314 314 309 302 298 296 290 286 285
271 272 273 274 276 277 279 280 281 281 280 280 279 281 283 285 285 284 283 281 279 279 280 281 283 285 286 289 291 292 294 297 299 301 304 307 310 313 315 317 319 320 321 322 322 324 325 327 328 329 329 327 325 322 320 320 321 322 322 320 317 314 311 310 310 312 314 310 304 302 298 290 285 282
271 272 274 275 276 278 278 279 280 280 280 280 280 282 284 285 284 283 282 281 280 280 280 281 282 284 286 288 290 291 294 296 298 300 302 305 308 310 313 315 316 318 319 320 321 322 324 325 326 327 327 325 324 323 322 321 320 320 320 320 318 315 312 309 308 311 313 310 306 305 298 288 284 277
272 273 275 276 277 278 278 279 279 279 280 280 282 283 284 284 284 283 282 282 281 281 281 281 282 284 286 288 289 291 294 296 298 300 302 304 306 308 310 312 314 316 317 318 319 321 322 323 324 325 325 323 321 321 321 321 320 320 320 320 318 316 314 311 309 311 312 308 305 304 297 287 280 268
274 275 276 277 277 277 278 278 278 279 280 281 283 284 284 284 284 283 283 282 282 281 280 281 282 283 285 287 289 291 294 297 299 300 302 303 305 307 309 311 313 314 315 316 317 318 320 321 322 323 323 322 320 319 320 321 321 320 319 319 318 316 315 312 309 311 310 305 299 296 289 278 266 255
275 276 276 276 277 277 278 278 279 280 281 282 283 284 284 284 284 283 283 282 282 281 280 280 281 283 284 287 289 292 294 296 298 299 301 303 305 306 308 310 311 312 313 314 315 316 318 319 320 321 321 321 320 319 319 320 320 318 318 317 316 315 314 311 308 309 308 303 298 293 285 275 262 251
277 277 276 275 276 277 278 279 279 280 281 282 282 283 283 283 283 283 282 282 282 281 280 280 281 282 284 286 289 291 293 295 297 298 300 302 304 305 307 308 309 310 311 312 314 315 316 317 318 319 320 319 319 318 318 318 317 316 315 314 313 312 312 310 307 306 304 300 296 292 286 279 266 251
278 274 273 273 275 276 278 278 279 279 280 281 281 282 283 283 283 282 282 282 282 281 281 281 281 283 284 287 288 290 292 294 295 297 299 301 302 304 305 307 308 309 310 311 312 313 315 316 317 318 318 318 317 316 316 316 315 314 312 312 311 310 310 308 305 303 301 298 293 286 280 276 268 256
272 271 272 275 276 277 277 277 278 278 279 280 281 282 283 282 282 282 282 282 282 281 281 281 282 283 284 286 288 290 291 293 295 296 298 300 301 302 304 305 306 307 308 309 311 312 313 314 315 316 316 316 315 314 314 314 313 312 311 310 309 309 308 307 304 300 298 295 288 279 271 268 264 258
262 267 272 275 276 275 275 276 277 278 280 281 282 282 282 282 282 282 282 282 281 281 281 282 282 283 285 286 288 289 291 292 294 296 297 298 300 301 303 304 305 306 307 308 309 310 311 312 313 314 314 314 313 313 313 312 312 311 310 309 308 307 306 306 303 298 296 294 284 272 263 260 258 256
261 267 271 273 274 275 275 277 278 280 281 281 282 282 282 282 282 283 282 282 282 281 282 282 283 284 285 286 287 289 290 292 293 295 296 298 299 301 302 303 304 305 306 307 308 310 310 311 312 313 313 312 312 312 312 311 311 310 309 308 308 306 305 304 302 297 294 292 283 268 259 256 255 255
269 271 272 273 274 275 277 279 280 280 281 281 281 281 282 282 283 283 283 283 283 282 282 283 283 284 285 286 287 289 290 291 293 294 296 297 299 300 302 303 304 305 306 307 308 309 310 311 312 312 312 312 312 311 311 311 310 309 308 307 306 305 303 302 301 296 292 291 284 269 257 253 255 255
272 273 273 275 276 278 279 280 280 280 280 281 281 282 282 283 283 283 283 284 284 283 283 284 284 285 286 287 288 290 291 292 293 295 296 297 299 300 301 303 304 304 305 307 308 309 310 311 311 311 311 311 311 310 310 309 309 308 307 306 305 304 302 300 299 295 289 287 283 271 257 251 251 253
272 274 275 277 278 279 280 279 279 280 280 281 281 281 282 282 283 283 283 284 284 284 285 285 286 287 288 289 290 291 292 293 294 295 297 298 299 300 301 302 304 304 305 306 308 309 310 310 310 310 310 310 310 309 309 309 308 307 306 305 304 302 300 298 296 293 289 285 283 275 261 251 249 250
276 277 277 277 277 278 277 277 278 278 279 280 280 281 281 282 282 282 283 284 284 285 286 286 287 288 289 290 291 291 292 294 295 296 297 298 299 300 301 302 304 305 305 306 308 308 309 309 309 309 309 309 309 309 309 309 309 307 306 306 304 302 300 298 296 293 290 287 286 282 269 256 251 252
274 276 277 277 278 277 276 276 277 277 278 279 280 280 281 282 282 283 283 284 285 285 286 287 288 289 289 290 291 292 293 294 295 296 297 298 299 300 301 303 303 304 305 306 307 307 307 307 307 308 308 309 309 309 309 309 309 309 308 308 306 304 303 301 298 295 292 288 286 284 276 263 255 253
271 273 274 274 274 275 276 277 278 279 280 281 281 282 282 283 284 284 285 285 286 286 287 288 288 289 290 291 291 292 293 294 295 296 297 299 300 301 302 302 303 304 305 306 306 306 306 306 306 307 307 308 308 309 309 309 308 308 308 307 306 305 303 302 300 297 294 289 285 283 281 273 263 257
Height
11015 11014 11014 11013 11011 11010 11009 11007 11005 11004 11002 11000 10998 10996 10993 10990 10988 10986 10984 10982 10980 10977 10975 10973 10971 10969 10966 10964 10962 10959 10957 10956 10954 10953 10951 10950 10949 10947 10946 10944 10943 10942 10941 10939 10938 10937 10936 10936 10935 10935 10934 10934 10934 10933 10933 10932 10931 10930 10928 10927 10925 10923 10921 10918 10916 10914 10911 10908 10905 10902 10899 10896 10892 10888
11015 11014 11013 11012 11011 11010 11008 11007 11005 11003 11002 11000 10998 10995 10993 10990 10988 10986 10984 10982 10980 10977 10975 10972 10970 10968 10966 10964 10962 10960 10959 10957 10956 10955 10954 10952 10951 10950 10948 10947 10945 10944 10942 10941 10939 10938 10937 10937 10936 10935 10935 10934 10934 10933 10932 10930 10929 10927 10926 10924 10922 10921 10919 10917 10914 10912 10910 10907 10905 10902 10898 10895 10891 10887
11014 11013 11012 11012 11011 11009 11008 11006 11004 11003 11001 10999 10997 10995 10992 10990 10988 10986 10984 10982 10980 10978 10975 10972 10970 10968 10966 10964 10963 10961 10960 10959 10958 10956 10955 10954 10952 10951 10949 10947 10946 10944 10943 10941 10940 10939 10938 10937 10937 10936 10935 10934 10933 10932 10931 10929 10927 10926 10924 10922 10920 10918 10917 10915 10913 10911 10909 10907 10904 10901 10898 10894 10889 10885
11013 11012 11011 11010 11010 11009 11007 11006 11004 11003 11001 10999 10997 10994 10992 10990 10988 10986 10984 10982 10981 10978 10975 10973 10971 10969 10967 10965 10963 10961 10960 10959 10958 10957 10956 10954 10953 10951 10950 10948 10946 10944 10943 10941 10940 10939 10938 10938 10937 10936 10935 10934 10933 10931 10930 10928 10926 10924 10922 10920 10918 10916 10914 10913 10911 10910 10908 10906 10903 10900 10897 10893 10888 10884
11012 11012 11011 11010 11009 11008 11007 11005 11004 11003 11001 10999 10996 10994 10992 10989 10988 10986 10985 10983 10981 10979 10976 10974 10972 10970 10968 10966 10964 10962 10961 10960 10958 10957 10956 10955 10954 10952 10950 10948 10946 10945 10943 10942 10941 10940 10939 10938 10937 10936 10935 10933 10932 10930 10929 10927 10925 10923 10921 10918 10915 10914 10912 10911 10910 10908 10906 10904 10902 10899 10895 10891 10887 10883
11011 11010 11010 11009 11008 11007 11006 11005 11004 11002 11000 10998 10996 10993 10991 10989 10988 10987 10985 10984 10982 10980 10977 10975 10973 10970 10968 10966 10964 10962 10961 10959 10958 10957 10955 10954 10953 10952 10950 10948 10946 10944 10943 10942 10941 10940 10939 10938 10936 10935 10934 10932 10931 10929 10928 10926 10924 10922 10920 10917 10915 10913 10911 10910 10907 10905 10904 10902 10900 10897 10894 10890 10886 10882
11010 11009 11008 11008 11007 11006 11005 11004 11003 11001 11000 10998 10995 10993 10991 10989 10988 10987 10985 10983 10981 10979 10978 10976 10974 10972 10969 10966 10964 10963 10961 10959 10958 10956 10954 10953 10951 10950 10948 10946 10944 10943 10943 10942 10941 10940 10939 10937 10936 10934 10933 10931 10929 10928 10927 10925 10923 10921 10919 10917 10914 10912 10910 10908 10905 10903 10901 10899 10897 10895 10892 10888 10885 10881
11008 11007 11007 11006 11005 11005 11004 11003 11002 11000 10999 10997 10995 10992 10990 10989 10987 10986 10985 10983 10981 10979 10978 10976 10974 10972 10970 10967 10965 10963 10961 10959 10957 10956 10954 10952 10950 10948 10946 10944 10942 10941 10941 10941 10940 10939 10938 10937 10935 10934 10932 10930 10929 10927 10925 10924 10922 10921 10918 10916 10913 10911 10908 10906 10903 10901 10898 10896 10894 10892 10889 10887 10883 10880
11007 11006 11005 11004 11004 11003 11002 11002 11001 11000 10998 10996 10994 10992 10990 10988 10987 10986 10985 10984 10982 10980 10979 10976 10974 10972 10970 10968 10965 10963 10961 10959 10957 10955 10953 10951 10948 10947 10945 10943 10940 10939 10939 10939 10939 10938 10937 10935 10934 10932 10931 10929 10928 10926 10925 10923 10921 10919 10917 10915 10912 10910 10907 10905 10902 10900 10897 10894 10891 10889 10887 10884 10882 10878
11005 11005 11004 11003 11002 11001 11001 11000 10999 10998 10997 10995 10993 10991 10989 10987 10986 10985 10985 10983 10982 10981 10979 10977 10975 10972 10970 10968 10966 10964 10961 10958 10955 10953 10952 10949 10947 10945 10943 10942 10940 10938 10936 10936 10936 10935 10934 10933 10932 10931 10930 10928 10926 10925 10924 10922 10920 10918 10916 10913 10911 10908 10905 10903 10900 10897 10895 10892 10889 10886 10883 10881 10879 10876
11004 11003 11002 11001 11001 11000 10999 10998 10998 10997 10996 10994 10993 10990 10988 10986 10985 10984 10983 10982 10981 10979 10978 10976 10974 10972 10970 10968 10966 10964 10962 10959 10955 10952 10950 10948 10945 10943 10942 10941 10939 10937 10935 10933 10933 10933 10932 10930 10929 10928 10928 10926 10924 10923 10921 10919 10918 10915 10913 10910 10908 10905 10903 10901 10898 10895 10892 10890 10887 10883 10880 10878 10876 10874
11003 11002 11001 11000 10999 10998 10997 10996 10995 10995 10994 10993 10991 10989 10987 10985 10983 10981 10980 10979 10978 10977 10976 10974 10973 10972 10970 10968 10966 10964 10961 10959 10956 10952 10949 10946 10944 10942 10940 10939 10937 10936 10934 10932 10931 10931 10930 10928 10926 10925 10924 10923 10921 10919 10918 10917 10915 10913 10910 10907 10904 10902 10900 10898 10895 10892 10889 10886 10884 10881 10877 10875 10873 10871
11001 11000 10999 10998 10997 10996 10995 10994 10993 10992 10991 10990 10989 10987 10985 10983 10981 10979 10978 10977 10976 10976 10974 10973 10972 10971 10969 10966 10964 10962 10960 10958 10955 10952 10948 10945 10942 10940 10939 10937 10936 10934 10932 10930 10928 10928 10928 10926 10922 10920 10920 10919 10918 10916 10915 10913 10911 10909 10907 10904 10902 10899 10896 10894 10892 10889 10886 10882 10879 10877 10874 10871 10869 10867
10999 10998 10998 10997 10996 10994 10993 10992 10991 10990 10989 10988 10987 10986 10984 10982 10980 10978 10977 10975 10974 10974 10973 10971 10970 10969 10967 10965 10962 10961 10959 10957 10954 10951 10947 10943 10940 10938 10937 10935 10934 10933 10930 10928 10925 10924 10924 10923 10919 10917 10918 10917 10914 10913 10912 10910 10908 10906 10904 10902 10900 10897 10894 10891 10889 10886 10883 10879 10875 10873 10871 10868 10866 10863
10996 10996 10995 10995 10994 10992 10991 10990 10989 10988 10987 10986 10985 10984 10983 10981 10979 10977 10975 10974 10972 10971 10971 10970 10968 10966 10965 10963 10961 10959 10958 10955 10953 10950 10947 10943 10940 10938 10936 10934 10933 10931 10929 10927 10924 10922 10921 10919 10916 10915 10915 10914 10912 10910 10909 10908 10906 10904 10902 10900 10897 10894 10891 10888 10886 10883 10880 10877 10873 10869 10867 10864 10862 10860
10993 10993 10993 10992 10991 10990 10989 10987 10986 10985 10985 10984 10983 10982 10981 10979 10977 10975 10973 10971 10970 10969 10968 10968 10966 10963 10962 10962 10960 10959 10957 10954 10952 10949 10947 10944 10941 10938 10937 10935 10933 10931 10929 10926 10923 10920 10918 10916 10914 10912 10912 10912 10909 10907 10906 10905 10903 10902 10901 10897 10893 10891 10888 10884 10882 10879 10876 10873 10870 10867 10863 10860 10858 10855
10990 10990 10990 10990 10989 10988 10986 10985 10983 10982 10982 10981 10981 10980 10978 10977 10975 10973 10971 10969 10967 10966 10965 10964 10963 10961 10960 10959 10959 10957 10955 10952 10949 10947 10946 10944 10941 10938 10936 10934 10932 10931 10929 10926 10921 10918 10917 10914 10911 10909 10909 10908 10906 10903 10902 10901 10900 10901 10900 10893 10888 10886 10884 10881 10878 10875 10871 10868 10866 10863 10860 10856 10853 10851
10987 10987 10987 10987 10986 10985 10984 10982 10980 10979 10979 10978 10978 10977 10976 10974 10973 10971 10969 10967 10965 10963 10961 10960 10960 10959 10957 10956 10956 10955 10953 10951 10949 10946 10945 10943 10940 10936 10934 10932 10930 10929 10928 10926 10922 10917 10915 10913 10909 10906 10905 10904 10901 10899 10897 10896 10895 10898 10898 10891 10883 10879 10878 10877 10874 10870 10866 10864 10862 10859 10857 10854 10850 10847
10983 10984 10984 10983 10983 10982 10981 10979 10977 10976 10975 10975 10975 10974 10973 10972 10971 10969 10967 10965 10963 10961 10959 10958 10956 10956 10955 10954 10953 10952 10951 10950 10948 10945 10943 10941 10938 10934 10931 10928 10927 10925 10924 10923 10920 10916 10914 10912 10908 10904 10902 10900 10896 10893 10892 10891 10889 10890 10891 10887 10880 10875 10872 10871 10869 10865 10862 10860 10858 10855 10853 10851 10848 10844
10980 10980 10980 10980 10979 10979 10978 10977 10975 10973 10972 10972 10971 10971 10970 10969 10968 10967 10964 10962 10961 10959 10957 10956 10955 10953 10952 10951 10950 10950 10949 10948 10947 10943 10941 10939 10937 10933 10929 10926 10923 10921 10920 10919 10917 10913 10910 10908 10906 10902 10899 10896 10893 10889 10887 10884 10882 10882 10883 10881 10878 10874 10869 10864 10862 10860 10858 10856 10854 10851 10848 10847 10845 10841
10976 10976 10976 10976 10976 10975 10975 10974 10972 10970 10968 10967 10967 10967 10966 10965 10965 10964 10962 10960 10958 10956 10954 10954 10952 10951 10949 10948 10947 10947 10946 10945 10944 10941 10938 10936 10933 10931 10928 10925 10920 10916 10915 10915 10914 10910 10906 10904 10902 10899 10895 10892 10889 10886 10883 10878 10876 10875 10874 10873 10872 10868 10862 10858 10857 10856 10854 10852 10849 10847 10845 10843 10841 10837
10971 10971 10971 10971 10971 10971 10971 10970 10969 10967 10964 10963 10963 10963 10962 10961 10961 10960 10958 10956 10955 10953 10951 10950 10948 10947 10945 10944 10942 10942 10941 10940 10939 10937 10934 10931 10929 10926 10924 10922 10918 10912 10908 10908 10909 10906 10903 10900 10898 10896 10893 10888 10883 10881 10878 10873 10869 10868 10866 10865 10863 10859 10856 10854 10853 10850 10848 10846 10844 10842 10840 10838 10836 10833
10966 10966 10967 10967 10967 10967 10967 10966 10965 10963 10961 10959 10958 10958 10958 10957 10956 10955 10954 10952 10950 10948 10947 10945 10944 10942 10940 10939 10937 10936 10935 10934 10932 10931 10929 10926 10924 10921 10919 10916 10914 10910 10906 10904 10904 10902 10899 10896 10893 10891 10889 10885 10880 10875 10872 10868 10864 10860 10858 10856 10854 10851 10850 10849 10846 10843 10842 10840 10837 10836 10834 10833 10831 10828
10961 10961 10962 10962 10962 10962 10962 10962 10961 10960 10957 10955 10954 10954 10954 10953 10951 10950 10949 10947 10946 10944 10941 10940 10939 10937 10935 10934 10933 10931 10929 10927 10925 10923 10922 10921 10919 10917 10915 10912 10909 10907 10903 10901 10901 10899 10895 10892 10889 10886 10883 10881 10877 10872 10868 10864 10859 10855 10852 10848 10844 10842 10841 10840 10839 10837 10835 10833 10830 10829 10827 10826 10825 10824
10957 10957 10957 10957 10957 10957 10956 10957 10957 10955 10953 10951 10949 10949 10949 10949 10947 10945 10943 10942 10941 10938 10936 10934 10933 10932 10930 10928 10927 10925 10923 10922 10921 10918 10916 10915 10913 10911 10909 10906 10904 10901 10898 10895 10894 10894 10891 10887 10884 10882 10879 10875 10872 10868 10863 10858 10853 10849 10845 10841 10837 10834 10832 10831 10831 10829 10827 10825 10824 10821 10819 10819 10818 10817
10952 10952 10951 10951 10951 10951 10951 10951 10951 10950 10948 10946 10944 10943 10943 10944 10943 10941 10938 10937 10936 10933 10932 10930 10928 10927 10926 10923 10921 10920 10919 10918 10917 10914 10912 10910 10908 10906 10902 10899 10898 10896 10893 10889 10887 10887 10886 10882 10878 10876 10874 10870 10867 10863 10858 10853 10848 10844 10839 10834 10829 10826 10823 10822 10821 10820 10819 10818 10816 10814 10812 10811 10810 10810
10946 10946 10946 10945 10945 10945 10945 10945 10945 10944 10943 10941 10939 10938 10937 10938 10939 10937 10934 10932 10931 10928 10927 10925 10923 10922 10921 10919 10916 10915 10913 10913 10912 10910 10907 10904 10903 10901 10897 10893 10890 10890 10888 10885 10882 10880 10880 10878 10873 10870 10868 10865 10862 10858 10854 10850 10846 10841 10836 10830 10824 10819 10815 10813 10812 10811 10811 10811 10809 10806 10805 10804 10802 10802
10939 10940 10940 10939 10939 10939 10939 10939 10939 10939 10938 10936 10935 10933 10932 10932 10933 10932 10929 10927 10926 10924 10922 10920 10919 10917 10916 10914 10912 10910 10908 10907 10907 10905 10901 10898 10897 10895 10892 10887 10884 10883 10882 10880 10877 10875 10873 10872 10869 10865 10861 10858 10856 10853 10849 10845 10841 10837 10833 10827 10820 10814 10809 10806 10804 10804 10803 10803 10802 10800 10797 10795 10795 10795
10932 10933 10933 10933 10933 10933 10934 10934 10933 10933 10932 10932 10930 10929 10927 10926 10925 10925 10924 10922 10921 10919 10918 10916 10914 10913 10912 10909 10907 10905 10902 10901 10901 10899 10896 10892 10890 10890 10888 10883 10878 10876 10875 10873 10871 10869 10866 10864 10861 10859 10855 10850 10848 10845 10843 10839 10835 10830 10827 10823 10817 10811 10805 10800 10798 10797 10796 10795 10794 10793 10790 10788 10787 10788
10925 10926 10926 10927 10927 10928 10928 10928 10927 10927 10926 10926 10925 10924 10922 10921 10919 10918 10918 10917 10916 10914 10912 10911 10910 10908 10906 10904 10902 10900 10897 10895 10895 10894 10892 10888 10885 10884 10883 10879 10874 10870 10867 10865 10864 10863 10860 10857 10853 10851 10848 10844 10839 10836 10834 10831 10828 10823 10820 10816 10811 10806 10800 10796 10792 10791 10790 10789 10788 10786 10784 10782 10782 10782
10918 10919 10920 10921 10921 10922 10922 10921 10921 10920 10920 10920 10919 10918 10917 10915 10914 10912 10912 10911 10910 10909 10907 10906 10904 10902 10900 10898 10896 10894 10891 10890 10889 10888 10886 10884 10881 10879 10877 10875 10871 10867 10862 10858 10856 10855 10853 10850 10846 10843 10840 10837 10833 10829 10826 10823 10820 10816 10812 10809 10805 10800 10795 10790 10787 10785 10784 10783 10781 10780 10779 10778 10777 10777
10912 10913 10913 10915 10915 10915 10915 10915 10914 10914 10913 10913 10912 10912 10911 10910 10908 10907 10906 10905 10904 10903 10901 10900 10898 10896 10894 10892 10889 10887 10885 10883 10882 10881 10879 10878 10875 10873 10871 10869 10867 10864 10860 10854 10850 10848 10846 10843 10841 10837 10833 10829 10826 10822 10818 10814 10811 10807 10804 10801 10797 10793 10788 10783 10780 10779 10778 10777 10775 10773 10773 10773 10773 10773
10907 10907 10907 10908 10908 10908 10908 10908 10907 10907 10906 10906 10905 10905 10904 10903 10902 10901 10900 10899 10898 10896 10895 10893 10892 10890 10887 10885 10883 10881 10879 10877 10875 10874 10872 10871 10869 10867 10865 10862 10860 10858 10856 10852 10848 10844 10841 10838 10835 10832 10828 10824 10820 10815 10811 10807 10803 10798 10795 10793 10790 10787 10783 10778 10774 10773 10773 10770 10768 10766 10766 10767 10768 10768
10902 10902 10902 10902 10901 10901 10901 10901 10900 10900 10899 10898 10898 10898 10897 10896 10896 10895 10894 10892 10891 10890 10888 10887 10885 10883 10881 10879 10877 10876 10874 10872 10869 10867 10865 10864 10862 10860 10858 10856 10853 10851 10849 10846 10843 10840 10837 10833 10830 10826 10822 10818 10814 10809 10805 10803 10799 10793 10788 10785 10782 10780 10777 10772 10768 10767 10767 10764 10760 10758 10759 10760 10761 10762
10898 10896 10895 10895 10894 10894 10894 10894 10893 10892 10892 10891 10891 10890 10890 10889 10889 10888 10886 10885 10884 10883 10881 10880 10878 10877 10875 10873 10871 10870 10869 10866 10864 10861 10859 10857 10855 10853 10851 10849 10847 10844 10842 10839 10836 10833 10830 10828 10825 10822 10817 10813 10808 10803 10798 10795 10794 10790 10784 10780 10776 10773 10771 10767 10762 10761 10761 10758 10755 10753 10753 10753 10754 10755
10889 10887 10886 10886 10887 10887 10886 10886 10885 10885 10884 10884 10883 10883 10883 10882 10882 10880 10879 10878 10876 10875 10874 10873 10872 10870 10869 10867 10866 10864 10863 10860 10858 10856 10853 10851 10849 10846 10844 10841 10839 10837 10835 10832 10830 10827 10823 10820 10817 10815 10811 10807 10803 10799 10794 10789 10786 10783 10780 10775 10770 10767 10764 10762 10758 10755 10755 10753 10750 10749 10748 10747 10748 10748
10880 10878 10877 10878 10879 10879 10879 10878 10877 10877 10877 10877 10876 10876 10876 10875 10874 10873 10871 10870 10869 10868 10867 10866 10865 10864 10862 10861 10859 10858 10856 10854 10851 10849 10847 10845 10842 10840 10837 10835 10832 10829 10826 10824 10822 10820 10817 10814 10810 10807 10804 10800 10796 10793 10788 10783 10777 10774 10772 10769 10765 10760 10757 10755 10752 10749 10748 10747 10745 10743 10743 10742 10742 10743
10874 10872 10871 10871 10871 10871 10871 10870 10870 10870 10869 10869 10869 10869 10868 10867 10866 10865 10864 10863 10862 10861 10860 10859 10858 10856 10855 10854 10852 10851 10848 10846 10844 10842 10840 10838 10836 10833 10831 10828 10825 10821 10818 10815 10813 10811 10809 10807 10804 10801 10797 10794 10790 10786 10782 10777 10771 10766 10762 10760 10757 10754 10750 10748 10745 10743 10741 10740 10738 10737 10736 10736 10736 10737
10867 10866 10865 10864 10864 10863 10863 10863 10862 10862 10862 10861 10861 10861 10860 10859 10859 10858 10857 10856 10855 10854 10853 10852 10851 10849 10848 10846 10845 10843 10841 10839 10837 10834 10832 10830 10828 10826 10823 10820 10817 10813 10809 10806 10803 10801 10798 10796 10794 10791 10789 10786 10783 10778 10775 10770 10765 10760 10755 10751 10748 10746 10743 10741 10738 10736 10735 10733 10732 10730 10730 10730 10730 10731
10858 10859 10858 10858 10857 10856 10856 10856 10855 10854 10854 10853 10853 10852 10852 10851 10851 10850 10849 10848 10847 10846 10845 10844 10843 10842 10841 10839 10837 10835 10834 10831 10829 10827 10824 10822 10820 10818 10815 10812 10809 10805 10801 10797 10794 10791 10788 10785 10782 10779 10777 10775 10772 10769 10766 10762 10758 10753 10748 10744 10740 10737 10735 10733 10732 10729 10727 10726 10725 10724 10723 10724 10724 10724
10851 10851 10851 10851 10850 10850 10849 10848 10847 10847 10846 10845 10845 10845 10844 10844 10843 10842 10841 10840 10839 10838 10837 10836 10835 10834 10832 10831 10829 10827 10825 10823 10820 10818 10816 10814 10812 10809 10807 10804 10800 10796 10793 10789 10785 10782 10778 10775 10771 10768 10765 10763 10760 10758 10756 10753 10749 10746 10742 10737 10733 10729 10726 10725 10724 10722 10720 10719 10718 10717 10716 10716 10716 10716
10846 10845 10845 10844 10843 10843 10842 10841 10840 10839 10838 10838 10838 10837 10837 10836 10835 10834 10833 10832 10831 10830 10829 10827 10827 10825 10824 10822 10820 10818 10816 10814 10812 10809 10807 10805 10802 10800 10797 10794 10791 10787 10783 10780 10777 10773 10769 10765 10761 10758 10755 10752 10749 10747 10744 10742 10740 10737 10734 10730 10727 10723 10719 10717 10716 10714 10712 10711 10710 10709 10708 10708 10708 10709
10839 10839 10838 10837 10837 10836 10835 10833 10833 10832 10831 10831 10830 10830 10829 10829 10827 10826 10825 10824 10823 10821 10820 10818 10818 10816 10815 10813 10811 10809 10807 10805 10803 10801 10799 10796 10794 10791 10788 10785 10782 10777 10773 10770 10767 10764 10761 10757 10752 10748 10745 10741 10738 10735 10732 10730 10728 10726 10724 10721 10719 10715 10712 10709 10708 10706 10704 10702 10701 10701 10700 10701 10701 10701
10832 10831 10831 10830 10829 10828 10827 10826 10825 10824 10823 10823 10822 10822 10821 10821 10819 10818 10817 10816 10815 10813 10811 10810 10809 10807 10806 10804 10802 10800 10798 10796 10794 10792 10790 10787 10785 10782 10779 10776 10772 10768 10764 10760 10757 10755 10751 10747 10743 10739 10736 10732 10728 10725 10722 10719 10716 10713 10712 10710 10708 10705 10702 10700 10699 10698 10697 10695 10694 10693 10693 10693 10693 10693
10824 10824 10823 10822 10821 10820 10819 10818 10817 10816 10815 10815 10814 10813 10812 10812 10811 10810 10809 10808 10807 10805 10803 10801 10800 10798 10797 10795 10794 10792 10790 10787 10785 10782 10780 10777 10775 10772 10769 10766 10763 10759 10755 10751 10748 10745 10742 10739 10735 10731 10727 10723 10719 10716 10713 10710 10708 10705 10703 10701 10698 10696 10694 10692 10691 10690 10689 10689 10687 10686 10685 10685 10685 10685